Flag for Canada Weather past 2 weeks in Surrey, British Columbia, Canada

Now
41 °F

Quite cool.


Feels Like: 41 °F
Forecast: 26 / 47 °F
Wind: 1 mph from South

Location: P. Meadows Coastal Station

Current Time: Mar 4, 2015 at 11:00:14 AM

Latest Report: Mar 4, 2015 at 10:00 AM


Visibility: N/A

Pressure: 30.32 "Hg

Humidity: 58%

Dew point: 27 °F

Location of SurreyLocation

Historic Weather in Surrey — Graph

°F

Surrey temperature yesterday

Maximum temperature yesterday: 51 °F (at 2:00 PM)
Minimum temperature yesterday: 31 °F (at 10:00 PM)
Average temperature yesterday: 41 °F

Past Weeks' High & Low Weather Summary

 TemperatureHumidityPressure
High58 °F (Feb 17, 4:00 PM)100% (Feb 18, 8:00 AM)30.50 "Hg (Feb 18, 8:00 AM)
Low26 °F (Mar 4, 4:00 AM)19% (Mar 3, 12:00 PM)29.77 "Hg (Feb 27, 7:00 AM)
Average43 °F76%30.22 "Hg
* Reported Feb 17 10:00 AM — Mar 4 10:00 AM, Surrey, Weather by CustomWeather, © 2015

Note: Actual official high and low records may vary slightly from our data, if they occured in-between our weather recording intervals... More about our weather records

Advertising

Surrey weather history for previous 24 hours

 ConditionsComfort  
Time TempWeatherWind HumidityBarometerVisibility
10:00 AM
Wed, Mar 4
41 °FQuite cool.1 mph58%30.32 "HgN/A
9:00 AM36 °FChilly.1 mph73%30.32 "HgN/A
8:00 AM31 °FChilly.1 mph92%30.32 "HgN/A
7:00 AM27 °FChilly.No wind96%30.30 "HgN/A
6:00 AM26 °FChilly.1 mph96%30.30 "HgN/A
5:00 AM26 °FChilly.1 mph95%30.29 "HgN/A
4:00 AM26 °FChilly.1 mph96%30.29 "HgN/A
3:00 AM27 °FChilly.1 mph92%30.29 "HgN/A
2:00 AM29 °FChilly.1 mph91%30.29 "HgN/A
1:00 AM31 °FChilly.No wind80%30.28 "HgN/A
12:00 AM31 °FChilly.1 mph95%30.27 "HgN/A
11:00 PM
Tue, Mar 3
31 °FChilly.1 mph85%30.26 "HgN/A
10:00 PM31 °FChilly.1 mph85%30.25 "HgN/A
9:00 PM34 °FChilly.1 mph73%30.24 "HgN/A
8:00 PM36 °FChilly.1 mph66%30.23 "HgN/A
7:00 PM41 °FQuite cool.No wind50%30.23 "HgN/A
6:00 PM45 °FCool.2 mph33%30.22 "HgN/A
5:00 PM47 °FCool.3 mph35%30.22 "HgN/A
4:00 PM50 °FCool.3 mph25%30.23 "HgN/A
3:00 PM51 °FCool.3 mph22%30.23 "HgN/A
2:00 PM51 °FCool.2 mph22%30.24 "HgN/A
1:00 PM49 °FCool.1 mph20%30.26 "HgN/A
12:00 PM47 °FCool.2 mph19%30.27 "HgN/A
11:00 AM46 °FCool.3 mph31%30.28 "HgN/A
Weather by CustomWeather, © 2015

See weather overviewHow to use our weather pages